AIST-2 (RS-43) (39133 NORAD) Tracking and Keplerian Element Data

This shows tracking and keplerian element data for the satellite.

Feedback or suggestion? Click here.




ElementValue
Catalog39133
NameAIST-2 (RS-43)
Epoch Orbit31823
Epoch Day35.97462442
Epoch Year2019
RAAN195.7711
Inclination64.8735
Eccentricity0.0005618
Argument of Perigee316.7687
Mean Anonmoly187.1847
Mean Motion15.04675706
Decay Rate1.13E-06
L11 39133U 13015D 19035.97462442 .00000113 00000-0 20238-4 0 9999
L22 39133 64.8735 195.7711 0005618 316.7687 187.1847 15.04675706318237



Live tracking and technical data element details for AIST-2 (RS-43) (NORAD 39133). AIST-2 (RS-43) can be tracked NOW for your location showing map with azimuth and elevation plus other details from your city location.







IsCatalogInMostPopularTable: catalog: 39133, numindb: 334
Update: records affected: 1



GetName: 39133 AIST-2 (RS-43)

Hit Count: updated at: Fri, 16 May 2025 11:40:21 GMT